Retour au catalogue

NOAA 16 DEB

ActifPO
NORAD 41427·DEBRIS·🇺🇸 United States

Lancé Sep 21, 2000 depuis Vandenberg Space Force Base

Loading…

Prochains Passages (prochaines 24 heures)

TLE

FraisSource: Space-Track

Époque: Sep 13, 2026, 13:55 UTC

1 41427U 00055LG  26256.58037094  .00009577  00000-0  25423-2 0  9991
2 41427  98.9214  25.9816 0022652 232.8451 127.0672 14.48712950544566

Suivez NOAA 16 DEB en temps réel avec AllMySat

Download on the App Store